Cheraw, SC

12:40 PM EDT on August 20, 2017 (GMT -0400)
Cheraw

Weather History for KCQW - May, 2013

Change the Weather History Date:

Sunday, May 19, 2013

  Actual Average (KFLO) Record (KFLO)
Temperature  
Mean Temperature 70 °F -  
Max Temperature 77 °F 84 °F 98 °F (1962)
Min Temperature 64 °F 60 °F 46 °F (1973)
Cooling Degree Days 6    
Growing Degree Days 20 (Base 50)    
Moisture  
Dew Point 66 °F    
Average Humidity 94    
Maximum Humidity 100    
Minimum Humidity 74    
Precipitation  
Precipitation 0.35 in - - ()
Sea Level Pressure  
Sea Level Pressure 30.10 in    
Wind  
Wind Speed - (North)    
Max Wind Speed -    
Max Gust Speed -    
Visibility 7 miles    
Events Rain , Thunderstorm    
Averages and records for this station are not official NWS values.
T = Trace of Precipitation, MM = Missing Value Source: NWS Daily Summary

Daily Weather History Graph

Daily Weather History Graph

Search for Another Location

Airport or City:

Trip Planner

Search our weather history database for the weather conditions in past years. The results will help you decide how hot, cold, wet, or windy it might be!

Date:

Astronomy

May. 19, 2013 Rise Set
Actual Time 6:13 AM EDT 8:19 PM EDT
Civil Twilight 5:45 AM EDT 8:47 PM EDT
Nautical Twilight 5:11 AM EDT 9:21 PM EDT
Astronomical Twilight 4:34 AM EDT 9:59 PM EDT
Moon 2:35 PM EDT (5/19) 2:21 AM EDT (5/19)
Length of Visible Light 15h 01m
Length of Day
14h 05m
Waxing Gibbous, 65% of the Moon is Illuminated
May 19
Waxing Gibbous
May 25
Full
May 31
Last Quarter
Jun 8
New
Jun 16
First Quarter

Hourly Weather History & Observations

Time (EDT) Temp. Dew Point Humidity Pressure Visibility Wind Dir Wind Speed Gust Speed Precip Events Conditions
12:15 AM 64.4 °F 64.4 °F 100% 30.12 in 1.0 mi North - - N/A   Overcast
12:35 AM 64.4 °F 64.4 °F 100% 30.12 in 0.8 mi North - - N/A   Mostly Cloudy
12:55 AM 64.4 °F 64.4 °F 100% 30.13 in 1.5 mi North - - N/A   Mostly Cloudy
1:15 AM 64.4 °F 64.4 °F 100% 30.12 in 1.8 mi North - - N/A   Overcast
1:35 AM 64.4 °F 64.4 °F 100% 30.12 in 1.5 mi North - - N/A   Mostly Cloudy
1:55 AM 64.4 °F 64.4 °F 100% 30.11 in 1.5 mi North - - N/A   Overcast
2:15 AM 64.4 °F 64.4 °F 100% 30.11 in 7.0 mi North - - N/A   Mostly Cloudy
2:35 AM 64.4 °F 64.4 °F 100% 30.11 in 7.0 mi North - - N/A   Scattered Clouds
2:55 AM 64.4 °F 64.4 °F 100% 30.10 in 5.0 mi North - - N/A   Mostly Cloudy
3:15 AM 64.4 °F 64.4 °F 100% 30.10 in 2.5 mi North - - N/A   Overcast
3:35 AM 64.4 °F 64.4 °F 100% 30.10 in 3.0 mi North - - N/A   Overcast
3:55 AM 64.4 °F 64.4 °F 100% 30.10 in 4.0 mi North - - N/A   Mostly Cloudy
4:15 AM 64.4 °F 64.4 °F 100% 30.10 in 2.5 mi North - - 0.01 in Rain Light Rain
4:35 AM 64.4 °F 64.4 °F 100% 30.10 in 2.5 mi North - - 0.01 in Rain Light Rain
4:55 AM 64.4 °F 64.4 °F 100% 30.10 in 2.0 mi North - - 0.01 in   Mostly Cloudy
5:15 AM 64.4 °F 64.4 °F 100% 30.10 in 3.0 mi North - - N/A   Mostly Cloudy
5:35 AM 64.4 °F 64.4 °F 100% 30.10 in 2.5 mi North - - N/A   Mostly Cloudy
5:55 AM 64.4 °F 64.4 °F 100% 30.10 in 2.5 mi North - - N/A   Mostly Cloudy
6:15 AM 64.4 °F 64.4 °F 100% 30.10 in 8.0 mi North - - N/A   Mostly Cloudy
6:35 AM 66.2 °F 66.2 °F 100% 30.11 in 3.0 mi North - - 0.01 in Rain Light Rain
6:55 AM 66.2 °F 66.2 °F 100% 30.11 in 7.0 mi North - - 0.01 in Rain Light Rain
7:15 AM 66.2 °F 66.2 °F 100% 30.12 in 10.0 mi North - - N/A   Overcast
7:35 AM 66.2 °F 66.2 °F 100% 30.13 in 7.0 mi North - - N/A   Overcast
7:55 AM 66.2 °F 66.2 °F 100% 30.13 in 9.0 mi North - - N/A   Overcast
8:35 AM 66.2 °F 66.2 °F 100% 30.15 in 10.0 mi North - - N/A   Overcast
8:55 AM 66.2 °F 66.2 °F 100% 30.15 in 10.0 mi North - - N/A   Overcast
9:15 AM 66.2 °F 66.2 °F 100% 30.15 in 10.0 mi North - - N/A   Mostly Cloudy
9:35 AM 68.0 °F 68.0 °F 100% 30.14 in 10.0 mi North - - N/A   Mostly Cloudy
9:55 AM 71.6 °F 68.0 °F 88% 30.14 in 10.0 mi North - - N/A   Mostly Cloudy
10:15 AM 71.6 °F 68.0 °F 88% 30.14 in 10.0 mi North - - N/A   Mostly Cloudy
10:35 AM 73.4 °F 68.0 °F 83% 30.14 in 10.0 mi North - - N/A   Mostly Cloudy
10:55 AM 75.2 °F 69.8 °F 83% 30.14 in 10.0 mi North - - N/A   Mostly Cloudy
11:15 AM 71.6 °F 68.0 °F 88% 30.13 in 9.0 mi North - - N/A Rain Light Rain
11:35 AM 71.6 °F 68.0 °F 88% 30.13 in 10.0 mi North - - N/A   Overcast
11:55 AM 71.6 °F 66.2 °F 83% 30.13 in 10.0 mi North - - N/A   Mostly Cloudy
12:15 PM 71.6 °F 68.0 °F 88% 30.12 in 10.0 mi North - - N/A Thunderstorm Mostly Cloudy
12:35 PM 73.4 °F 68.0 °F 83% 30.12 in 10.0 mi North - - N/A   Scattered Clouds
12:55 PM 73.4 °F 68.0 °F 83% 30.11 in 10.0 mi North - - N/A   Scattered Clouds
1:15 PM 73.4 °F 68.0 °F 83% 30.11 in 10.0 mi North - - N/A   Partly Cloudy
1:35 PM 71.6 °F 68.0 °F 88% 30.11 in 10.0 mi North - - N/A   Scattered Clouds
1:55 PM 71.6 °F 68.0 °F 88% 30.10 in 10.0 mi North - - N/A   Mostly Cloudy
2:15 PM 73.4 °F 68.0 °F 83% 30.10 in 10.0 mi North - - N/A Rain Light Rain
2:35 PM 73.4 °F 68.0 °F 83% 30.09 in 10.0 mi North - - N/A   Mostly Cloudy
2:55 PM 73.4 °F 68.0 °F 83% 30.08 in 10.0 mi North - - N/A   Mostly Cloudy
3:15 PM 73.4 °F 68.0 °F 83% 30.06 in 10.0 mi North - - N/A   Mostly Cloudy
3:35 PM 75.2 °F 68.0 °F 78% 30.07 in 10.0 mi North - - N/A   Partly Cloudy
3:55 PM 75.2 °F 68.0 °F 78% 30.07 in 10.0 mi North - - N/A   Clear
4:15 PM 75.2 °F 68.0 °F 78% 30.07 in 10.0 mi North - - N/A   Scattered Clouds
4:35 PM 75.2 °F 68.0 °F 78% 30.07 in 10.0 mi North - - N/A   Mostly Cloudy
4:55 PM 77.0 °F 68.0 °F 74% 30.06 in 10.0 mi North - - N/A   Scattered Clouds
5:15 PM 75.2 °F 68.0 °F 78% 30.07 in 8.0 mi North - - 0.06 in   Mostly Cloudy
5:35 PM 68.0 °F 68.0 °F 100% 30.07 in 4.0 mi North - - 0.20 in Rain , Thunderstorm Light Rain
5:55 PM 68.0 °F 66.2 °F 94% 30.07 in 5.0 mi North - - 0.22 in Rain , Thunderstorm Light Rain
6:15 PM 66.2 °F 66.2 °F 100% 30.07 in 1.5 mi North - - 0.06 in Rain Rain
6:35 PM 66.2 °F 66.2 °F 100% 30.08 in 3.0 mi North - - 0.08 in Rain Light Rain
6:55 PM 66.2 °F 66.2 °F 100% 30.08 in 4.0 mi North - - 0.09 in Rain Light Rain
7:15 PM 66.2 °F 66.2 °F 100% 30.08 in 5.0 mi North - - 0.01 in Rain Light Rain
7:35 PM 66.2 °F 66.2 °F 100% 30.08 in 8.0 mi North - - 0.01 in Rain Light Rain
7:55 PM 66.2 °F 66.2 °F 100% 30.08 in 10.0 mi North - - 0.01 in   Mostly Cloudy
8:15 PM 66.2 °F 66.2 °F 100% 30.08 in 10.0 mi North - - N/A   Partly Cloudy
8:35 PM 66.2 °F 66.2 °F 100% 30.07 in 9.0 mi North - - 0.01 in   Scattered Clouds
8:55 PM 66.2 °F 66.2 °F 100% 30.07 in 6.0 mi North - - 0.01 in   Overcast
9:15 PM 66.2 °F 66.2 °F 100% 30.08 in 5.0 mi North - - N/A   Overcast
9:35 PM 66.2 °F 66.2 °F 100% 30.08 in 5.0 mi North - - N/A   Overcast
9:55 PM 66.2 °F 66.2 °F 100% 30.09 in 6.0 mi North - - N/A   Overcast
10:15 PM 66.2 °F 66.2 °F 100% 30.10 in 5.0 mi North - - N/A   Overcast
10:35 PM 66.2 °F 66.2 °F 100% 30.11 in 5.0 mi North - - N/A   Overcast
10:55 PM 66.2 °F 66.2 °F 100% 30.11 in 5.0 mi North - - N/A   Overcast
11:15 PM 68.0 °F 68.0 °F 100% 30.11 in 5.0 mi North - - N/A   Overcast
11:35 PM 66.2 °F 66.2 °F 100% 30.11 in 3.0 mi North - - N/A   Overcast
11:55 PM 66.2 °F 66.2 °F 100% 30.11 in 2.0 mi North - - N/A   Overcast